PEGASUS DEB

Satellite information

Favourite Embed

Satellite Type and Status

DEBRISIN ORBIT

Key statistics

Satellite PEGASUS DEB at a glance.

Uptime

11531

Days in orbit

Revolutions

≈ 14.6

Per day

Orbit

LEO

Low Earth Orbit

Inclination

81.9

Latest

Satellite identification and parameters

Extended collection of information and parameters for PEGASUS DEB.

Object identification

Identified? True

Debris? True

Object name: PEGASUS DEB

International designator: 1994-029AFD

Object number (NORAD): 39318

Object ID (CCSDS): 39318

Country: UNITED STATES OF AMERICA (US)

Current information (Y/N): Y

RCS size: SMALL

Orbital parameters

Period: 98.317 minutes

Inclination: 81.9442 deg

SMA: 7056.321 km

Apoapsis: 808.567 km

Periapsis: 547.805 km

RAAN: 258.3513 deg

Eccentricy: 0.01847724

Argument of periapsis: 243.4681 deg

Mean anomaly: 295.3877 deg

Mean motion: 14.64654711 rev/day

Mean motion (dot): 0.0000242 rev/day2

B* drag term: 0.00035118027 1/REarth

Two-line elements (TLE)

Creation date: Dec. 10, 2025, 7:58 p.m.

Reference frame: TEME

Reference center: EARTH

Epoch: Dec. 10, 2025, 12:35 p.m. UTC

TLE line 0: 0 PEGASUS DEB

TLE line 1: 1 39318U 94029AFD 25344.52493044 .00002420 00000-0 35118-3 0 9996

TLE line 2: 2 39318 81.9442 258.3513 0184772 243.4681 295.3877 14.64654711250454

Live tracking on map

Real-time ground track for satellite PEGASUS DEB.

In-orbit conjunctions

A list of the most updated potential collisions computed for object PEGASUS DEB.

Target Orbit TCA Probability of collision Miss distance Type
FREGAT R/B LEO 2025-03-01 15:26:37 0.0001157123 392.0 (m) ROCKET BODY

Associated space launch

PEGASUS DEB was lifted into orbit during the mission ‘Pegasus HAPS | Space Test Experiments Platform 2 (STEP-2)’, on board a Pegasus HAPS space rocket.

The launch took place on May 19, 1994, 5:03 p.m. from Edwards Air Force Base.

For more information about the launch, click the button.

Launch to space Pegasus HAPS | Space Test Experiments Platform 2 (STEP-2)
Pegasus HAPS | Space Test Experiments Platform 2 (STEP-2)

Agency: N/A

Status: Launch Successful

Launch date: May 19, 1994, 5:03 p.m. UTC

Rocket: Pegasus HAPS

Launch pad: Edwards Air Force Base

Location: Air launch to orbit

...

Latest news about this satellite

There are no fresh news available about this satellite. Check back as we update our databases every day.


Newsletter sign-up

Weekly statistics, charts and insights to help you stay on top of the space industry.